Other Public Products
Issued by NWS Grand Forks, ND

Home | Current Version | Previous Version | Graphics & Text | Print | Product List | Glossary On
Versions: 1 2 3 4 5 6 7 8 9 10 11 12 13 14 15 16 17 18 19 20 21 22 23 24 25 26 27 28 29 30 31 32 33 34 35 36 37 38 39 40 41 42 43 44 45 46 47 48 49 50
632
FPUS83 KFGF 050431
OPUFGF
PRAIRIE TO PINES WEATHER ROUNDUP
NATIONAL WEATHER SERVICE EASTERN NORTH DAKOTA/GRAND FORKS ND
1100 PM CDT WED MAY 04 2016

 **SATELLITE DATA USED TO AUGMENT SKY COVER AT AUTOMATED STATIONS**
 *****  WEATHER ACROSS EASTERN NORTH DAKOTA  *****

CITY           SKY/WX    TMP DP  RH WIND       PRES   REMARKS
GRAND FORKS    MOCLDY    57  30  35 S8        29.91F
GRAND FORKS AF PTCLDY    57  28  33 S9        29.91F
GRAND CITY NWS NOT AVBL
BUXTON           N/A     56  28  34 SE9         N/A
DEVILS LAKE    CLEAR     57  45  64 SE8       29.91S
FARGO          PTCLDY    54  28  36 SE6       29.95F
WAHPETON ARPT  PTCLDY    50  28  43 S3        29.98S
$$

 *****  WEATHER ACROSS CENTRAL AND WESTERN NORTH DAKOTA  *****

CITY           SKY/WX    TMP DP  RH WIND       PRES   REMARKS
JAMESTOWN      CLEAR     56  38  50 S7        29.94F
BISMARCK       CLEAR     58  46  64 S5        29.95S
MINOT          CLEAR     71  40  32 S9        29.87S
MINOT AFB      CLEAR     64  41  42 S12       29.85S
GARRISON         N/A     59  45  59 S5        29.90S
WILLISTON      CLEAR     56  43  61 CALM      29.86R
DICKINSON      CLEAR     55  40  56 S10       29.93S
HETTINGER      CLEAR     58  42  55 SE8       29.99S
$$

 *****  OTHER OBSERVATIONS NORTHEAST NORTH DAKOTA  *****

CITY           SKY/WX    TMP DP  RH WIND       PRES   REMARKS
WALHALLA       FAIR      64  36  34 S14G21    29.85F
LANGDON        FAIR      59  37  44 S17       29.88F
CAVALIER       FAIR      57  34  41 S12       29.87S
GRAFTON        FAIR      54  34  47 S12       29.91S
CANDO          FAIR      54  39  58 S8        29.89F
FORT TOTTEN      N/A     63  37  38 S7        29.95S
ROLLA          MOCLDY    59  39  47 SW12      29.88S
RUGBY          FAIR      64  45  48 SW20      29.87S
 ***** THE ABOVE OBSERVATIONS ARE NON NWS ARE NOT QUALITY
        CONTROLLED AND MAY MIS-REPORT RAIN FOR SNOW...
$$

 *****  OTHER OBSERVATIONS SOUTHEAST NORTH DAKOTA *****

CITY           SKY/WX    TMP DP  RH WIND       PRES   REMARKS
COOPERSTOWN    NOT AVBL
VALLEY CITY    FAIR      54  32  43 S9        29.97F
OAKES            N/A    N/A N/A N/A MISG        N/A
GWINNER        FAIR      55  37  50 S9        29.98F
SHEYENNE NWR     N/A     50  37  61 S2        29.95S
BUFFALO          N/A     58  23  26 S10         N/A
WYNDMERE         N/A     52  30  43 S3          N/A
 ***** THE ABOVE OBSERVATIONS ARE NON NWS ARE NOT QUALITY
       CONTROLLED AND MAY MIS-REPORT RAIN FOR SNOW...
$$

  *****  WEATHER ACROSS NORTHERN MINNESOTA  *****

CITY           SKY/WX    TMP DP  RH WIND       PRES   REMARKS
FLAG ISLAND    CLOUDY    50  36  57 SE12      29.90F
WARROAD        CLOUDY    50  36  57 S6        29.91F
ROSEAU         CLEAR     52  34  50 S8        29.90F
HALLOCK        CLEAR     55  27  33 S12       29.88S
THF RVR FALLS  CLEAR     52  27  37 S8        29.93F
HALSTAD        NOT AVBL
FOSSTON        CLEAR     46  28  49 S7        29.96F
BAUDETTE       CLOUDY    46  34  62 S3        29.95R
WASKISH        PTCLDY    45  36  70 CALM      29.96S
CROOKSTON      CLEAR     52  30  43 S8        29.93F
$$
  *****  WEATHER ACROSS CENTRAL AND WEST MINNESOTA  *****

CITY           SKY/WX    TMP DP  RH WIND       PRES   REMARKS
BEMIDJI        CLEAR     46  32  59 CALM      29.96F
PARK RAPIDS    CLEAR     49  30  48 CALM      29.97F
WADENA         CLEAR     46  30  53 CALM      29.98F
DETROIT LAKES  CLEAR     50  37  62 CALM      29.99F
MOORHEAD       PTCLDY    57  30  35 SE6       29.97S
FERGUS FALLS   CLEAR     54  34  47 CALM      29.95F
ELBOW LAKE     FAIR      52  36  54 S3        29.99S
MORRIS MN      CLEAR     54  30  40 CALM      29.98F
STAPLES        CLEAR     45  28  53 CALM      29.99S
WHEATON        CLEAR     52  34  50 SE3       30.01R
$$
  *****  WEATHER ELSEWHERE ACROSS MINNESOTA  *****

CITY           SKY/WX    TMP DP  RH WIND       PRES   REMARKS
DULUTH         CLEAR     41  28  60 SE5       29.98F
INTRNTL FALLS  CLOUDY    38  28  67 CALM      29.96R
ELY            CLEAR     34  27  75 CALM      29.97R
CLOQUET        CLEAR     39  28  65 CALM      29.98F
BRAINERD       CLEAR     46  30  53 CALM      29.99S
HIBBING        CLEAR     34  22  61 CALM      29.96F
ALEXANDRIA     CLEAR     50  28  42 CALM      29.99F
SAINT CLOUD    CLEAR     43  27  53 CALM      29.98S
MINNEAPOLIS    PTCLDY    55  31  39 N3        29.98S
$$

  *****  WEATHER ACROSS SOUTH DAKOTA  *****

CITY           SKY/WX    TMP DP  RH WIND       PRES   REMARKS
SIOUX FALLS    CLEAR     49  35  58 CALM      30.02R
BROOKINGS      CLEAR     51  33  50 CALM      30.02R
WATERTOWN      CLEAR     53  32  44 CALM      30.02R
HURON          CLEAR     53  42  66 CALM      30.01S
SISSETON         N/A     50  34  54 W5        29.98F
ABERDEEN       CLEAR     52  36  54 S5        30.00R
MITCHELL       CLEAR     54  43  66 SW5       30.03R
PIERRE         CLEAR     56  41  57 S5        30.01S
MOBRIDGE       CLEAR     57  46  66 SE8       29.98S
RAPID CITY     CLEAR     52  43  71 S3        30.03R
$$

  *****  SOME WEATHER IN NEARBY STATES *****

CITY           SKY/WX    TMP DP  RH WIND       PRES   REMARKS
GLASGOW MT     PTCLDY    63  41  44 SE9       29.83R
GREAT FALLS MT PTCLDY    58  36  43 W6        29.88R
CHEYENNE WY    CLEAR     54  35  48 SW8       30.18R
SCOTTSBLUFF NE CLEAR     56  43  61 SE6       30.09R
OMAHA NE       CLEAR     54  44  69 CALM      30.01R
DES MOINES IA  CLEAR     57  35  43 N6        29.97R
DAVENPORT IA   PTCLDY    47  35  63 N12       29.91S
CHICAGO IL     MOCLDY    43  34  70 N13       29.88S
EAU CLAIRE WI  CLEAR     46  25  43 NE6       29.99R
LA CROSSE WI   CLEAR     52  25  35 NE8       29.97R
$$

  *****  SOME NATIONAL WEATHER *****

CITY           SKY/WX    TMP DP  RH WIND       PRES   REMARKS
LA GUARDIA NY  CLOUDY    50  45  83 NE10G20   29.74S
RALEIGH NC     MOCLDY    59  52  77 CALM      29.63F
ATLANTA GA     CLOUDY    57  52  83 NW10      29.76F
NEW ORLEANS LA CLEAR     66  53  63 W5        29.91R
OKLAHOMA CITY  CLEAR     64  43  46 N5        30.04R
ALBUQUERQUE NM CLEAR     64  23  21 E5        30.17R
SALT LAKE CITY CLOUDY    72  34  24 SE6       29.94R
LOS ANGELES CA MOCLDY    60  51  72 SW7       29.93R
BOISE ID       MOCLDY    73  35  25 SE9       29.79S
SEATTLE WA     CLOUDY    55  45  68 N5        30.01S
$$

*** WEATHER ACROSS MANITOBA...SASKATCHEWAN AND ONTARIO ***
                ***ONTARIO***

CITY           SKY/WX    TMP DP  RH WIND       PRES   REMARKS
GERALDTON      MOCLDY    34  32  93 SE6       29.99F
THUNDER BAY    PTCLDY    34  30  86 NW3       30.01R
SIOUX LOOKOUT  MOCLDY    43  28  56 CALM      29.95R
TORONTO        PTCLDY    50  41  71 E6        29.76S
BIG TROUT LK   MOCLDY    43  19  39 S12G17    29.79F
PICKLE LAKE    NOT AVBL
DRYDEN         MOCLDY    50  23  34 S8        29.92F
KENORA         MOCLDY    52  25  35 S7        29.91F
$$
                *** MANITOBA***

CITY           SKY/WX    TMP DP  RH WIND       PRES   REMARKS
BRANDON        PTCLDY    68  43  40 SW17      29.78F
DAUPHIN        CLEAR     75  41  29 SW15G21   29.68F
ISLAND LAKE    PTCLDY    52  30  43 S7        29.70F
PILOT MOUND      N/A     59  36  41 S15         N/A
THE PAS        PTCLDY    61  46  59 SE8       29.57F
THOMPSON       CLEAR     52  39  62 S5        29.60S
WINNIPEG       CLEAR     59  32  36 S17       29.82F
LYNN LAKE      PTCLDY    59  45  58 NE3G20    29.59S
CHURCHILL      PTCLDY    32  30  93 NE15      29.66R WCI  22
GILLAM         CLEAR     50  36  57 S8        29.60F
$$
                ***SASKATCHEWAN***

CITY           SKY/WX    TMP DP  RH WIND       PRES   REMARKS
ESTEVAN        PTCLDY    57  41  54 S7        29.83S
KINDERSLEY     PTCLDY    66  36  32 S6        29.73S
LLOYDMINSTER   PTCLDY    66  37  34 CALM      29.69S
PRINCE ALBERT  MOCLDY    70  34  26 W9        29.65R
REGINA         CLEAR     61  34  36 SW8       29.77S
YORKTON        CLEAR     68  41  37 S10       29.71S  C1F1C2F2C3F3C4F4C5F5C6F6C7F7C8F8C9F9CaFaCbFbCcFcCdFdCe!



USA.gov is the U.S. government's official web portal to all federal, state and local government web resources and services.